Regional Weather Roundup
Issued by NWS Sioux Falls, SD

Home | Current Version | Previous Version | Text Only | Print | Product List | Glossary On
Versions: 1 2 3 4 5 6 7 8 9 10 11 12 13 14 15 16 17 18 19 20 21 22 23 24 25 26 27 28 29 30 31 32 33 34 35 36 37 38 39 40 41 42 43 44 45 46 47 48 49 50
000
ASUS43 KFSD 231902
RWRFSD

WEATHER ROUNDUP FOR SE SOUTH DAKOTA/SW MINNESOTA/NW IOWA
NATIONAL WEATHER SERVICE SIOUX FALLS SD
200 PM CDT WED APR 23 2014

NOTE: "FAIR" INDICATES FEW OR NO CLOUDS BELOW 12,000 FEET WITH NO
SIGNIFICANT WEATHER AND OR OBSTRUCTIONS TO VISIBILITY.


SDZ038>040-050-052>070-232000-
SOUTHEAST SOUTH DAKOTA

CITY           SKY/WX    TMP DP  RH WIND       PRES   REMARKS
CHAMBERLAIN      N/A     74  43  32 S23G31    29.51F
HURON          MOSUNNY   65  39  38 SE23G35   29.60F
MADISON        FAIR      57  39  51 SE30G44   29.68F
MITCHELL       MOSUNNY   68  41  37 SE30G41   29.59F
SIOUX FALLS    PTSUNNY   61  41  47 SE28G38   29.71F
WINNER         FAIR      72  43  35 SW9       29.50F
YANKTON        MOSUNNY   64  39  39 SE28G40   29.66F
$$

MNZ071-072-080-081-089-090-097-098-232000-
SOUTHWEST MINNESOTA

CITY           SKY/WX    TMP DP  RH WIND       PRES   REMARKS
FAIRMONT       CLOUDY    46  32  57 SE24G37   29.93F
JACKSON        CLOUDY    46  36  66 SE23      29.86F
LUVERNE        CLOUDY    54  37  54 SE25G35   29.78F
MARSHALL       CLOUDY    45  34  65 SE25G35   29.82F
MONTEVIDEO     LGT RAIN  41  39  93 SE26G32   29.88F
PIPESTONE      CLOUDY    50  36  57 SE24G35   29.77F
REDWOOD FALLS  LGT RAIN  44  36  73 E16G28    29.91F
TRACY          CLOUDY    45  37  75 SE17G28   29.84F
WINDOM         CLOUDY    46  36  66 E20G28    29.86F
WORTHINGTON    CLOUDY    48  30  49 SE28G37   29.85R
$$

IAZ001>003-012>014-020>022-031-032-NEZ013-014-SDZ071-232000-
NORTHWEST IOWA

CITY           SKY/WX    TMP DP  RH WIND       PRES   REMARKS
DENISON        CLOUDY    50  41  71 SE24G40   29.77F
ESTHERVILLE    CLOUDY    47  39  74 SE25G31   29.87F
SIOUX CITY     LGT RAIN  62  41  46 S32G46    29.70F
SPENCER        CLOUDY    49  37  63 SE30G40   29.85R
STORM LAKE     CLOUDY    52  41  66 SE35G41   29.79F
$$

ABBREVIATIONS USED IN REMARKS
   TC - TEMPERATURE IN CELSIUS
  WCI - WIND CHILL INDEX
   HX - HEAT INDEX
  VSB - VISIBILITY




USA.gov is the U.S. government's official web portal to all federal, state and local government web resources and services.